Change the Weather History Date:

Thursday, April 12, 2012

  Actual Average Record
Temperature  
Mean Temperature 49 °F 60 °F  
Max Temperature 64 °F 72 °F 89 °F (1930)
Min Temperature 33 °F 47 °F 27 °F (1907)
Degree Days  
Heating Degree Days 16 6  
Month to date heating degree days 50 90  
Since 1 July heating degree days 2310 2923  
Cooling Degree Days 0 1  
Month to date cooling degree days 19 12  
Year to date cooling degree days 85 20  
Moisture  
Dew Point 25 °F    
Average Humidity 45    
Maximum Humidity 70    
Minimum Humidity 20    
Precipitation  
Precipitation 0.00 in 0.11 in 1.77 in (1959)
Month to date precipitation 0.98 1.38  
Year to date precipitation 9.59 13.69  
Snow  
Snow 0.00 in 0.00 in 0.00 in ()
Month to date snowfall 0.0 0.0  
Since 1 July snowfall T 4.7  
Snow Depth 0.00 in    
Sea Level Pressure  
Sea Level Pressure 30.17 in    
Wind  
Wind Speed 4 mph (ESE)    
Max Wind Speed 12 mph    
Max Gust Speed 17 mph    
Visibility 10 miles    
Events      
T = Trace of Precipitation, MM = Missing Value Source: NWS Daily Summary

Daily Weather History Graph

Daily Weather History Graph

Search for Another Location

Airport or City:

Trip Planner

Search our weather history database for the weather conditions in past years. The results will help you decide how hot, cold, wet, or windy it might be!

Date:

Astronomy

Apr. 12, 2012 Rise Set
Actual Time 7:00 AM EDT 7:59 PM EDT
Civil Twilight 6:34 AM EDT 8:25 PM EDT
Nautical Twilight 6:03 AM EDT 8:55 PM EDT
Astronomical Twilight 5:32 AM EDT 9:27 PM EDT
Moon 1:37 AM EDT (4/12) 12:01 PM EDT (4/12)
Length of Visible Light 13h 50m
Length of Day
12h 58m
Waning Gibbous, 59% of the Moon is Illuminated
Apr 12
Waning Gibbous
Apr 13
Last Quarter
Apr 21
New
Apr 29
First Quarter
May 5
Full

Hourly Weather History & Observations

Time (EDT) Temp. Windchill Dew Point Humidity Pressure Visibility Wind Dir Wind Speed Gust Speed Precip Events Conditions
12:53 AM 44.1 °F 40.1 °F 23.0 °F 43% 30.15 in 10.0 mi NNE 6.9 mph - N/A   Clear
1:53 AM 42.1 °F 39.2 °F 24.1 °F 49% 30.16 in 10.0 mi NE 4.6 mph - N/A   Clear
2:53 AM 39.2 °F 37.0 °F 24.8 °F 56% 30.16 in 10.0 mi North 3.5 mph - N/A   Clear
3:53 AM 39.0 °F - 25.0 °F 57% 30.17 in 10.0 mi Calm Calm - N/A   Clear
4:53 AM 39.0 °F - 24.1 °F 55% 30.17 in 10.0 mi Calm Calm - N/A   Clear
5:53 AM 36.0 °F 33.3 °F 24.1 °F 62% 30.19 in 10.0 mi North 3.5 mph - N/A   Clear
6:53 AM 35.1 °F - 25.0 °F 67% 30.21 in 10.0 mi Calm Calm - N/A   Clear
7:53 AM 35.1 °F - 27.0 °F 72% 30.23 in 10.0 mi Calm Calm - N/A   Clear
8:53 AM 46.0 °F 44.8 °F 26.1 °F 46% 30.25 in 10.0 mi North 3.5 mph - N/A   Clear
9:53 AM 50.0 °F - 23.0 °F 35% 30.24 in 10.0 mi NNE 4.6 mph - N/A   Clear
10:53 AM 52.0 °F - 19.9 °F 28% 30.24 in 10.0 mi East 8.1 mph - N/A   Clear
11:53 AM 55.0 °F - 19.9 °F 25% 30.22 in 10.0 mi East 6.9 mph - N/A   Clear
12:53 PM 57.9 °F - 21.9 °F 25% 30.20 in 10.0 mi SSE 4.6 mph - N/A   Clear
1:53 PM 59.0 °F - 21.9 °F 24% 30.19 in 10.0 mi Calm Calm - N/A   Clear
2:53 PM 60.1 °F - 21.0 °F 22% 30.17 in 10.0 mi Variable 3.5 mph - N/A   Clear
3:53 PM 62.1 °F - 21.9 °F 21% 30.14 in 10.0 mi Variable 4.6 mph - N/A   Clear
4:53 PM 63.0 °F - 23.0 °F 22% 30.11 in 10.0 mi ESE 6.9 mph - N/A   Clear
5:53 PM 63.0 °F - 23.0 °F 22% 30.11 in 10.0 mi Variable 4.6 mph - N/A   Clear
6:53 PM 61.0 °F - 23.0 °F 23% 30.12 in 10.0 mi SSW 6.9 mph - N/A   Clear
7:53 PM 55.9 °F - 28.9 °F 36% 30.12 in 10.0 mi SSE 4.6 mph - N/A   Clear
8:53 PM 51.1 °F - 30.9 °F 46% 30.12 in 10.0 mi South 4.6 mph - N/A   Clear
9:53 PM 48.9 °F - 32.0 °F 52% 30.15 in 10.0 mi South 3.5 mph - N/A   Clear
10:53 PM 48.0 °F - 32.0 °F 54% 30.15 in 10.0 mi SSW 3.5 mph - N/A   Clear
11:53 PM 46.9 °F - 32.0 °F 56% 30.15 in 10.0 mi SSW 3.5 mph - N/A   Clear